This demonstration page uses our WeatherBlox Daily Observations layout. Learn more.

Left ArrowRight Arrow

38.20091, -84.87328

Hourly Observations for January 21, 2020

Temp ( °F °C ) Dew Point ( °F °C ) Humidity (%) Winds ( mph kmh ) Pressure ( in mb ) Visibility ( mi km ) Precip ( " mm )
12:53 am 00:53 Cloudy 25 -3.9 14 -10 63 63 N 7 11 30.57 1035 10 16 0.00 0.00
1:53 am 01:53 Cloudy 25 -3.9 15 -9.4 66 66 N 3 6 30.57 1035 10 16 0.00 0.00
2:53 am 02:53 Cloudy 25 -3.9 15 -9.4 66 66 NNW 3 6 30.58 1036 10 16 0.00 0.00
3:18 am 03:18 Cloudy 25 -3.9 16 -8.9 69 69 N 3 6 30.60 1036 10 16 0.00 0.00
3:53 am 03:53 Cloudy 25 -3.9 15 -9.4 66 66 N 5 7 30.58 1036 10 16 0.00 0.00
4:48 am 04:48 Cloudy 25 -4 12 -11 59 59 NNE 8 13 30.62 1037 10 16 0.00 0.00
4:53 am 04:53 Cloudy 25 -3.9 12 -11.1 58 58 NE 6 9 30.59 1036 10 16 0.00 0.00
5:06 am 05:06 Cloudy 25 -3.9 12 -11.1 58 58 NE 8 13 30.61 1037 10 16 0.00 0.00
5:53 am 05:53 Cloudy 24 -4.4 12 -11.1 60 60 NNE 9 15 30.60 1036 10 16 0.00 0.00
6:53 am 06:53 Cloudy 24 -4.4 13 -10.6 62 62 NE 7 11 30.62 1037 10 16 0.00 0.00
7:53 am 07:53 Cloudy 24 -4.4 14 -10 65 65 NE 6 9 30.63 1037 10 16 0.00 0.00
8:53 am 08:53 Cloudy 24 -4.4 14 -10 65 65 ENE 6 9 30.64 1038 10 16 0.00 0.00
9:53 am 09:53 Cloudy 25 -3.9 13 -10.6 60 60 NE 8 13 30.65 1038 10 16 0.00 0.00
10:53 am 10:53 Cloudy 25 -3.9 13 -10.6 60 60 N 7 11 30.66 1038 10 16 0.00 0.00
11:53 am 11:53 Mostly Cloudy 27 -2.8 13 -10.6 55 55 N 6 9 30.65 1038 10 16 0.00 0.00
12:07 pm 12:07 Partly Cloudy 27 -2.8 13 -10.6 55 55 N 3 6 30.66 1038 10 16 0.00 0.00
12:53 pm 12:53 Sunny 30 -1.1 14 -10 51 51 VRB 5 7 30.61 1037 10 16 0.00 0.00
1:53 pm 13:53 Sunny 32 0 14 -10 47 47 VRB 3 6 30.57 1035 10 16 0.00 0.00
2:53 pm 14:53 Sunny 33 0.6 13 -10.6 43 43 undefined N/A 30.55 1035 10 16 0.00 0.00
3:53 pm 15:53 Sunny 33 0.6 13 -10.6 43 43 E 3 6 30.54 1034 10 16 0.00 0.00
4:53 pm 16:53 Sunny 32 0 12 -11.1 43 43 Calm 30.53 1034 10 16 0.00 0.00
5:53 pm 17:53 Clear 31 -0.6 12 -11.1 45 45 Calm 30.53 1034 10 16 0.00 0.00
6:53 pm 18:53 Clear 24 -4.4 15 -9.4 68 68 Calm 30.54 1034 10 16 0.00 0.00
7:53 pm 19:53 Clear 23 -5 15 -9.4 72 72 Calm 30.56 1035 10 16 0.00 0.00
8:53 pm 20:53 Clear 21 -6.1 13 -10.6 71 71 Calm 30.56 1035 10 16 0.00 0.00
9:53 pm 21:53 Clear 20 -6.7 13 -10.6 74 74 Calm 30.55 1035 10 16 0.00 0.00
10:53 pm 22:53 Clear 21 -6.1 14 -10 74 74 ESE 3 6 30.51 1033 10 16 0.00 0.00
11:53 pm 23:53 Clear 18 -7.8 13 -10.6 81 81 Calm 30.49 1033 10 16 0.00 0.00

Powered by AerisWeather